Time,TemperatureF,DewpointF,PressureIn,WindDirection,WindDirectionDegrees,WindSpeedMPH,WindSpeedGustMPH,Humidity,HourlyPrecipIn,Conditions,Clouds,dailyrainin,SoftwareType,DateUTC
2013-03-09 00:00:00,61.9,59.2,28.34,East,90,13.0,17.0,91,0.00,,,0.00,meteohub,2013-03-09 06:00:00,
2013-03-09 00:05:00,61.9,59.2,28.33,East,90,8.0,17.0,91,0.00,,,0.00,meteohub,2013-03-09 06:05:00,
2013-03-09 00:10:00,61.7,59.0,28.33,East,90,17.0,17.0,91,0.00,,,0.00,meteohub,2013-03-09 06:10:00,
2013-03-09 00:15:00,61.7,59.0,28.34,East,90,14.0,17.0,91,0.00,,,0.00,meteohub,2013-03-09 06:15:00,
2013-03-09 00:20:00,61.7,59.0,28.33,SE,135,9.0,17.0,91,0.00,,,0.00,meteohub,2013-03-09 06:20:00,
2013-03-09 00:25:00,61.7,59.0,28.33,East,90,11.0,17.0,91,0.00,,,0.00,meteohub,2013-03-09 06:25:00,
2013-03-09 00:30:00,61.7,59.4,28.34,East,90,11.0,14.0,92,0.00,,,0.00,meteohub,2013-03-09 06:30:00,
2013-03-09 00:35:00,61.5,59.2,28.34,East,90,8.0,13.0,92,0.00,,,0.00,meteohub,2013-03-09 06:35:00,
2013-03-09 00:40:00,61.5,59.2,28.33,East,90,5.0,12.0,92,0.00,,,0.00,meteohub,2013-03-09 06:40:00,
2013-03-09 00:45:00,61.5,59.2,28.33,East,90,10.0,11.0,92,0.00,,,0.00,meteohub,2013-03-09 06:45:00,
2013-03-09 00:51:00,61.7,59.4,28.34,East,90,8.0,11.0,92,0.00,,,0.00,meteohub,2013-03-09 06:51:00,
2013-03-09 00:56:00,61.7,59.4,28.33,SE,135,7.0,11.0,92,0.00,,,0.00,meteohub,2013-03-09 06:56:00,
2013-03-09 01:01:00,61.3,59.0,28.33,East,90,6.0,10.0,92,0.00,,,0.00,meteohub,2013-03-09 07:01:00,
2013-03-09 01:06:00,61.5,59.2,28.33,East,90,6.0,10.0,92,0.00,,,0.00,meteohub,2013-03-09 07:06:00,
2013-03-09 01:11:00,61.7,59.7,28.32,East,90,8.0,10.0,93,0.00,,,0.00,meteohub,2013-03-09 07:11:00,
2013-03-09 01:16:00,61.5,59.5,28.32,East,90,9.0,11.0,93,0.00,,,0.00,meteohub,2013-03-09 07:16:00,
2013-03-09 01:21:00,61.5,59.5,28.32,East,90,5.0,11.0,93,0.00,,,0.00,meteohub,2013-03-09 07:21:00,
2013-03-09 01:26:00,61.5,59.5,28.32,East,90,8.0,11.0,93,0.00,,,0.00,meteohub,2013-03-09 07:26:00,
2013-03-09 01:31:00,61.5,59.5,28.32,SE,135,8.0,11.0,93,0.00,,,0.00,meteohub,2013-03-09 07:31:00,
2013-03-09 01:36:00,61.3,59.4,28.32,East,90,8.0,11.0,93,0.00,,,0.00,meteohub,2013-03-09 07:36:00,
2013-03-09 01:41:00,61.3,59.4,28.32,East,90,7.0,11.0,93,0.00,,,0.00,meteohub,2013-03-09 07:41:00,
2013-03-09 01:46:00,61.5,59.5,28.32,ESE,113,8.0,11.0,93,0.00,,,0.00,meteohub,2013-03-09 07:46:00,
2013-03-09 01:51:00,61.5,59.5,28.32,SE,135,7.0,9.0,93,0.00,,,0.00,meteohub,2013-03-09 07:51:00,
2013-03-09 01:56:00,61.5,59.5,28.32,East,90,6.0,9.0,93,0.00,,,0.00,meteohub,2013-03-09 07:56:00,
2013-03-09 02:01:00,61.2,59.2,28.31,East,90,8.0,9.0,93,0.00,,,0.00,meteohub,2013-03-09 08:01:00,
2013-03-09 02:06:00,61.7,59.7,28.32,East,90,6.0,10.0,93,0.00,,,0.00,meteohub,2013-03-09 08:06:00,
2013-03-09 02:11:00,61.5,59.5,28.31,East,90,5.0,10.0,93,0.00,,,0.00,meteohub,2013-03-09 08:11:00,
2013-03-09 02:16:00,61.3,59.4,28.31,SE,135,8.0,10.0,93,0.00,,,0.00,meteohub,2013-03-09 08:16:00,
2013-03-09 02:21:00,61.5,59.5,28.31,East,90,8.0,10.0,93,0.00,,,0.00,meteohub,2013-03-09 08:21:00,
2013-03-09 02:26:00,61.7,59.7,28.31,East,90,5.0,10.0,93,0.00,,,0.00,meteohub,2013-03-09 08:26:00,
2013-03-09 02:31:00,61.5,59.5,28.31,SE,135,4.0,9.0,93,0.00,,,0.00,meteohub,2013-03-09 08:31:00,
2013-03-09 02:36:00,61.5,59.5,28.31,SSE,158,5.0,9.0,93,0.00,,,0.00,meteohub,2013-03-09 08:36:00,
2013-03-09 02:41:00,61.7,59.7,28.30,East,90,8.0,9.0,93,0.00,,,0.00,meteohub,2013-03-09 08:41:00,
2013-03-09 02:46:00,61.5,59.5,28.30,East,90,8.0,9.0,93,0.00,,,0.00,meteohub,2013-03-09 08:46:00,
2013-03-09 02:51:00,61.5,59.5,28.30,East,90,6.0,9.0,93,0.00,,,0.00,meteohub,2013-03-09 08:51:00,
2013-03-09 02:56:00,61.3,59.4,28.30,East,90,8.0,10.0,93,0.00,,,0.00,meteohub,2013-03-09 08:56:00,
2013-03-09 03:01:00,61.2,59.2,28.30,NE,45,4.0,10.0,93,0.00,,,0.00,meteohub,2013-03-09 09:01:00,
2013-03-09 03:06:00,61.2,59.2,28.30,East,90,4.0,10.0,93,0.00,,,0.00,meteohub,2013-03-09 09:06:00,
2013-03-09 03:11:00,61.2,59.2,28.30,SE,135,5.0,8.0,93,0.00,,,0.00,meteohub,2013-03-09 09:11:00,
2013-03-09 03:16:00,61.2,59.4,28.30,East,90,4.0,8.0,94,0.00,,,0.00,meteohub,2013-03-09 09:16:00,
2013-03-09 03:21:00,60.8,59.0,28.29,East,90,8.0,8.0,94,0.00,,,0.00,meteohub,2013-03-09 09:21:00,
2013-03-09 03:26:00,61.0,59.2,28.30,East,90,3.0,8.0,94,0.00,,,0.00,meteohub,2013-03-09 09:26:00,
2013-03-09 03:31:00,60.6,58.8,28.30,East,90,8.0,8.0,94,0.00,,,0.00,meteohub,2013-03-09 09:31:00,
2013-03-09 03:36:00,60.8,59.4,28.30,East,90,6.0,8.0,95,0.00,,,0.00,meteohub,2013-03-09 09:36:00,
2013-03-09 03:41:00,60.6,59.2,28.30,East,90,4.0,8.0,95,0.00,,,0.00,meteohub,2013-03-09 09:41:00,
2013-03-09 03:46:00,60.3,59.2,28.30,SE,135,7.0,8.0,96,0.00,,,0.00,meteohub,2013-03-09 09:46:00,
2013-03-09 03:51:00,60.3,59.2,28.30,East,90,5.0,8.0,96,0.00,,,0.00,meteohub,2013-03-09 09:51:00,
2013-03-09 03:56:00,60.1,59.0,28.29,East,90,5.0,7.0,96,0.00,,,0.00,meteohub,2013-03-09 09:56:00,
2013-03-09 04:01:00,60.3,59.4,28.29,ESE,113,6.0,8.0,97,0.00,,,0.00,meteohub,2013-03-09 10:01:00,
2013-03-09 04:06:00,59.9,59.0,28.29,SE,135,7.0,8.0,97,0.00,,,0.00,meteohub,2013-03-09 10:06:00,
2013-03-09 04:11:00,60.1,59.2,28.29,East,90,8.0,8.0,97,0.00,,,0.00,meteohub,2013-03-09 10:11:00,
2013-03-09 04:16:00,60.1,59.5,28.28,East,90,8.0,11.0,98,0.00,,,0.00,meteohub,2013-03-09 10:16:00,
2013-03-09 04:21:00,60.1,59.5,28.28,East,90,12.0,12.0,98,0.00,,,0.00,meteohub,2013-03-09 10:21:00,
2013-03-09 04:26:00,60.1,59.5,28.28,East,90,10.0,12.0,98,0.00,,,0.00,meteohub,2013-03-09 10:26:00,
2013-03-09 04:31:00,59.9,59.5,28.28,East,90,9.0,12.0,99,0.00,,,0.00,meteohub,2013-03-09 10:31:00,
2013-03-09 04:37:00,59.9,59.5,28.27,East,90,11.0,14.0,99,0.00,,,0.00,meteohub,2013-03-09 10:37:00,
2013-03-09 04:42:00,59.7,59.4,28.27,SE,135,12.0,14.0,99,0.00,,,0.00,meteohub,2013-03-09 10:42:00,
2013-03-09 04:47:00,59.7,59.4,28.27,ENE,68,8.0,14.0,99,0.01,,,0.01,meteohub,2013-03-09 10:47:00,
2013-03-09 04:52:00,59.5,59.2,28.27,East,90,8.0,15.0,99,0.01,,,0.01,meteohub,2013-03-09 10:52:00,
2013-03-09 04:57:00,59.5,59.2,28.27,SE,135,16.0,16.0,99,0.01,,,0.01,meteohub,2013-03-09 10:57:00,
2013-03-09 05:02:00,59.4,59.0,28.27,East,90,11.0,16.0,99,0.01,,,0.01,meteohub,2013-03-09 11:02:00,
2013-03-09 05:07:00,59.4,59.0,28.27,East,90,12.0,16.0,99,0.01,,,0.01,meteohub,2013-03-09 11:07:00,
2013-03-09 05:12:00,59.4,59.0,28.27,East,90,13.0,16.0,99,0.01,,,0.01,meteohub,2013-03-09 11:12:00,
2013-03-09 05:17:00,59.4,59.0,28.27,East,90,8.0,13.0,99,0.01,,,0.01,meteohub,2013-03-09 11:17:00,
2013-03-09 05:22:00,59.4,59.0,28.27,East,90,15.0,16.0,99,0.01,,,0.01,meteohub,2013-03-09 11:22:00,
2013-03-09 05:27:00,59.4,59.0,28.27,East,90,11.0,16.0,99,0.01,,,0.01,meteohub,2013-03-09 11:27:00,
2013-03-09 05:32:00,59.4,59.0,28.27,SE,135,11.0,16.0,99,0.01,,,0.01,meteohub,2013-03-09 11:32:00,
2013-03-09 05:37:00,59.2,58.8,28.26,SE,135,12.0,15.0,99,0.01,,,0.01,meteohub,2013-03-09 11:37:00,
2013-03-09 05:42:00,59.2,58.8,28.27,East,90,15.0,15.0,99,0.01,,,0.01,meteohub,2013-03-09 11:42:00,
2013-03-09 05:47:00,59.0,58.6,28.27,East,90,16.0,16.0,99,0.00,,,0.01,meteohub,2013-03-09 11:47:00,
2013-03-09 05:52:00,59.2,58.8,28.26,East,90,9.0,16.0,99,0.00,,,0.01,meteohub,2013-03-09 11:52:00,
2013-03-09 05:57:00,59.0,58.6,28.26,East,90,12.0,16.0,99,0.00,,,0.01,meteohub,2013-03-09 11:57:00,
2013-03-09 06:02:00,59.2,58.8,28.26,SE,135,15.0,16.0,99,0.00,,,0.01,meteohub,2013-03-09 12:02:00,
2013-03-09 06:07:00,59.2,58.8,28.26,East,90,13.0,15.0,99,0.00,,,0.01,meteohub,2013-03-09 12:07:00,
2013-03-09 06:12:00,59.2,58.8,28.26,East,90,15.0,15.0,99,0.00,,,0.01,meteohub,2013-03-09 12:12:00,
2013-03-09 06:17:00,59.4,59.0,28.26,East,90,19.0,19.0,99,0.00,,,0.01,meteohub,2013-03-09 12:17:00,
2013-03-09 06:22:00,59.2,58.8,28.25,East,90,9.0,19.0,99,0.00,,,0.01,meteohub,2013-03-09 12:22:00,
2013-03-09 06:27:00,59.0,58.6,28.25,SE,135,17.0,19.0,99,0.00,,,0.01,meteohub,2013-03-09 12:27:00,
2013-03-09 06:32:00,59.0,58.6,28.25,NE,45,11.0,19.0,99,0.00,,,0.01,meteohub,2013-03-09 12:32:00,
2013-03-09 06:37:00,59.0,58.6,28.25,East,90,16.0,17.0,99,0.00,,,0.01,meteohub,2013-03-09 12:37:00,
2013-03-09 06:42:00,59.0,58.6,28.25,East,90,14.0,17.0,99,0.00,,,0.01,meteohub,2013-03-09 12:42:00,
2013-03-09 06:47:00,59.0,58.6,28.25,East,90,13.0,16.0,99,0.00,,,0.01,meteohub,2013-03-09 12:47:00,
2013-03-09 06:52:00,59.0,58.6,28.25,SE,135,14.0,17.0,99,0.00,,,0.01,meteohub,2013-03-09 12:52:00,
2013-03-09 06:57:00,59.0,58.6,28.25,East,90,11.0,18.0,99,0.00,,,0.01,meteohub,2013-03-09 12:57:00,
2013-03-09 07:02:00,59.0,58.6,28.25,NE,45,17.0,18.0,99,0.00,,,0.01,meteohub,2013-03-09 13:02:00,
2013-03-09 07:07:00,59.0,58.6,28.25,East,90,18.0,18.0,99,0.00,,,0.01,meteohub,2013-03-09 13:07:00,
2013-03-09 07:12:00,59.0,58.6,28.24,East,90,15.0,18.0,99,0.00,,,0.01,meteohub,2013-03-09 13:12:00,
2013-03-09 07:17:00,59.0,58.6,28.25,ESE,113,15.0,18.0,99,0.00,,,0.01,meteohub,2013-03-09 13:17:00,
2013-03-09 07:22:00,59.0,58.6,28.25,East,90,15.0,19.0,99,0.00,,,0.01,meteohub,2013-03-09 13:22:00,
2013-03-09 07:27:00,59.0,58.6,28.24,East,90,16.0,19.0,99,0.00,,,0.01,meteohub,2013-03-09 13:27:00,
2013-03-09 07:32:00,59.0,58.6,28.24,SE,135,13.0,19.0,99,0.00,,,0.01,meteohub,2013-03-09 13:32:00,
2013-03-09 07:36:00,59.0,58.6,28.24,East,90,12.0,16.0,99,0.00,,,0.01,meteohub,2013-03-09 13:36:00,
2013-03-09 07:42:00,59.0,58.6,28.24,SE,135,11.0,16.0,99,0.00,,,0.01,meteohub,2013-03-09 13:42:00,
2013-03-09 07:47:00,59.2,58.8,28.24,SE,135,16.0,17.0,99,0.00,,,0.01,meteohub,2013-03-09 13:47:00,
2013-03-09 07:52:00,59.4,59.0,28.24,East,90,17.0,17.0,99,0.00,,,0.01,meteohub,2013-03-09 13:52:00,
2013-03-09 07:57:00,59.2,58.8,28.25,SE,135,11.0,17.0,99,0.00,,,0.01,meteohub,2013-03-09 13:57:00,
2013-03-09 08:02:00,59.4,59.0,28.25,SE,135,10.0,17.0,99,0.00,,,0.01,meteohub,2013-03-09 14:02:00,
2013-03-09 08:07:00,59.4,59.0,28.24,East,90,13.0,17.0,99,0.00,,,0.01,meteohub,2013-03-09 14:07:00,
2013-03-09 08:12:00,59.4,59.0,28.24,East,90,11.0,15.0,99,0.00,,,0.01,meteohub,2013-03-09 14:12:00,
2013-03-09 08:17:00,59.4,59.0,28.24,East,90,11.0,15.0,99,0.00,,,0.01,meteohub,2013-03-09 14:17:00,
2013-03-09 08:22:00,59.5,59.2,28.24,SE,135,12.0,15.0,99,0.00,,,0.01,meteohub,2013-03-09 14:22:00,
2013-03-09 08:27:00,59.7,59.4,28.24,SE,135,11.0,16.0,99,0.00,,,0.01,meteohub,2013-03-09 14:27:00,
2013-03-09 08:32:00,59.5,59.2,28.24,East,90,11.0,17.0,99,0.00,,,0.01,meteohub,2013-03-09 14:32:00,
2013-03-09 08:37:00,59.7,59.4,28.25,East,90,14.0,20.0,99,0.00,,,0.01,meteohub,2013-03-09 14:37:00,
2013-03-09 08:42:00,59.9,59.5,28.24,SE,135,12.0,20.0,99,0.00,,,0.01,meteohub,2013-03-09 14:42:00,
2013-03-09 08:47:00,60.1,59.7,28.24,SE,135,12.0,20.0,99,0.00,,,0.01,meteohub,2013-03-09 14:47:00,
2013-03-09 08:52:00,60.4,60.1,28.24,SE,135,8.0,16.0,99,0.00,,,0.01,meteohub,2013-03-09 14:52:00,
2013-03-09 08:57:00,60.6,60.3,28.24,SE,135,15.0,15.0,99,0.00,,,0.01,meteohub,2013-03-09 14:57:00,
2013-03-09 09:02:00,60.6,60.1,28.24,SE,135,11.0,15.0,98,0.00,,,0.01,meteohub,2013-03-09 15:02:00,
2013-03-09 09:07:00,60.8,60.3,28.24,SE,135,9.0,15.0,98,0.00,,,0.01,meteohub,2013-03-09 15:07:00,
2013-03-09 09:12:00,61.0,60.4,28.24,East,90,10.0,15.0,98,0.00,,,0.01,meteohub,2013-03-09 15:12:00,
2013-03-09 09:17:00,61.5,61.0,28.24,SE,135,7.0,15.0,98,0.00,,,0.01,meteohub,2013-03-09 15:17:00,
2013-03-09 09:22:00,62.1,61.2,28.24,SE,135,9.0,14.0,97,0.00,,,0.01,meteohub,2013-03-09 15:22:00,
2013-03-09 09:27:00,62.2,61.2,28.23,SE,135,8.0,13.0,96,0.00,,,0.01,meteohub,2013-03-09 15:27:00,
2013-03-09 09:32:00,62.8,61.3,28.23,SE,135,7.0,13.0,95,0.00,,,0.01,meteohub,2013-03-09 15:32:00,
2013-03-09 09:37:00,62.8,61.3,28.23,East,90,10.0,13.0,95,0.00,,,0.01,meteohub,2013-03-09 15:37:00,
2013-03-09 09:42:00,63.3,61.3,28.22,SE,135,12.0,13.0,93,0.00,,,0.01,meteohub,2013-03-09 15:42:00,
2013-03-09 09:47:00,63.9,61.9,28.23,NE,45,13.0,15.0,93,0.00,,,0.01,meteohub,2013-03-09 15:47:00,
2013-03-09 09:52:00,64.0,61.7,28.23,SE,135,9.0,15.0,92,0.00,,,0.01,meteohub,2013-03-09 15:52:00,
2013-03-09 09:57:00,64.2,61.5,28.23,South,180,10.0,15.0,91,0.00,,,0.01,meteohub,2013-03-09 15:57:00,
2013-03-09 10:02:00,64.8,62.1,28.22,South,180,9.0,15.0,91,0.00,,,0.01,meteohub,2013-03-09 16:02:00,
2013-03-09 10:07:00,65.7,62.2,28.22,SE,135,15.0,20.0,89,0.01,,,0.02,meteohub,2013-03-09 16:07:00,
2013-03-09 10:12:00,66.2,62.2,28.22,SE,135,13.0,20.0,87,0.01,,,0.02,meteohub,2013-03-09 16:12:00,
2013-03-09 10:17:00,67.1,62.1,28.21,South,180,22.0,22.0,84,0.01,,,0.02,meteohub,2013-03-09 16:17:00,
2013-03-09 10:22:00,67.6,61.9,28.21,South,180,16.0,22.0,82,0.01,,,0.02,meteohub,2013-03-09 16:22:00,
2013-03-09 10:27:00,67.6,62.2,28.21,SE,135,19.0,22.0,83,0.01,,,0.02,meteohub,2013-03-09 16:27:00,
2013-03-09 10:32:00,67.8,62.1,28.20,East,90,15.0,22.0,82,0.01,,,0.02,meteohub,2013-03-09 16:32:00,
2013-03-09 10:37:00,67.6,61.9,28.19,East,90,19.0,22.0,82,0.01,,,0.02,meteohub,2013-03-09 16:37:00,
2013-03-09 10:42:00,67.5,61.7,28.20,South,180,16.0,21.0,82,0.01,,,0.02,meteohub,2013-03-09 16:42:00,
2013-03-09 10:47:00,67.8,61.7,28.20,SW,225,15.0,21.0,81,0.01,,,0.02,meteohub,2013-03-09 16:47:00,
2013-03-09 10:52:00,67.8,61.3,28.20,South,180,19.0,20.0,80,0.01,,,0.02,meteohub,2013-03-09 16:52:00,
2013-03-09 10:57:00,67.8,61.3,28.21,South,180,15.0,20.0,80,0.01,,,0.02,meteohub,2013-03-09 16:57:00,
2013-03-09 11:02:00,65.3,57.2,28.23,NNW,338,27.0,27.0,75,0.01,,,0.02,meteohub,2013-03-09 17:02:00,
2013-03-09 11:07:00,60.6,55.4,28.23,SW,225,23.0,27.0,83,0.00,,,0.02,meteohub,2013-03-09 17:07:00,
2013-03-09 11:12:00,58.5,55.6,28.24,West,270,20.0,27.0,90,0.04,,,0.06,meteohub,2013-03-09 17:12:00,
2013-03-09 11:17:00,57.6,55.0,28.23,West,270,8.0,27.0,91,0.07,,,0.09,meteohub,2013-03-09 17:17:00,
2013-03-09 11:22:00,57.2,54.7,28.24,West,270,6.0,27.0,91,0.07,,,0.09,meteohub,2013-03-09 17:22:00,
2013-03-09 11:27:00,57.2,54.7,28.23,WNW,293,4.0,20.0,91,0.07,,,0.09,meteohub,2013-03-09 17:27:00,
2013-03-09 11:32:00,57.4,54.9,28.23,NE,45,0.0,14.0,91,0.07,,,0.09,meteohub,2013-03-09 17:32:00,
2013-03-09 11:37:00,57.7,55.4,28.23,North,0,1.0,6.0,92,0.07,,,0.09,meteohub,2013-03-09 17:37:00,
2013-03-09 11:42:00,57.9,55.6,28.23,West,270,2.0,4.0,92,0.08,,,0.11,meteohub,2013-03-09 17:42:00,
2013-03-09 11:47:00,58.5,56.1,28.23,West,270,1.0,2.0,92,0.08,,,0.11,meteohub,2013-03-09 17:47:00,
2013-03-09 11:52:00,59.0,56.3,28.24,West,270,4.0,4.0,91,0.08,,,0.11,meteohub,2013-03-09 17:52:00,
2013-03-09 11:57:00,59.2,56.5,28.23,West,270,2.0,4.0,91,0.08,,,0.11,meteohub,2013-03-09 17:57:00,
2013-03-09 12:02:00,59.7,57.0,28.23,SW,225,1.0,4.0,91,0.08,,,0.11,meteohub,2013-03-09 18:02:00,
2013-03-09 12:07:00,60.3,57.6,28.23,SW,225,3.0,4.0,91,0.08,,,0.11,meteohub,2013-03-09 18:07:00,
2013-03-09 12:12:00,61.0,58.6,28.23,SW,225,3.0,3.0,92,0.04,,,0.11,meteohub,2013-03-09 18:12:00,
2013-03-09 12:18:00,61.9,59.2,28.22,SW,225,5.0,5.0,91,0.01,,,0.11,meteohub,2013-03-09 18:18:00,
2013-03-09 12:23:00,62.8,59.2,28.22,SW,225,5.0,8.0,88,0.01,,,0.11,meteohub,2013-03-09 18:23:00,
2013-03-09 12:28:00,63.3,58.1,28.22,West,270,11.0,11.0,83,0.01,,,0.11,meteohub,2013-03-09 18:28:00,
2013-03-09 12:33:00,64.4,54.0,28.21,West,270,13.0,13.0,69,0.01,,,0.11,meteohub,2013-03-09 18:33:00,
2013-03-09 12:38:00,64.9,51.1,28.21,West,270,12.0,13.0,61,0.00,,,0.11,meteohub,2013-03-09 18:38:00,
2013-03-09 12:43:00,64.9,49.8,28.21,NNW,338,15.0,15.0,58,0.00,,,0.11,meteohub,2013-03-09 18:43:00,
2013-03-09 12:48:00,64.4,50.7,28.20,West,270,9.0,15.0,61,0.00,,,0.11,meteohub,2013-03-09 18:48:00,
2013-03-09 12:53:00,64.4,49.3,28.20,NW,315,11.0,16.0,58,0.00,,,0.11,meteohub,2013-03-09 18:53:00,
2013-03-09 12:58:00,64.8,48.2,28.19,SW,225,10.0,18.0,55,0.00,,,0.11,meteohub,2013-03-09 18:58:00,
2013-03-09 13:03:00,64.9,49.3,28.19,North,0,8.0,18.0,57,0.00,,,0.11,meteohub,2013-03-09 19:03:00,
2013-03-09 13:08:00,64.8,49.1,28.19,West,270,8.0,18.0,57,0.00,,,0.11,meteohub,2013-03-09 19:08:00,
2013-03-09 13:13:00,64.9,48.4,28.19,SW,225,10.0,15.0,55,0.00,,,0.11,meteohub,2013-03-09 19:13:00,
2013-03-09 13:18:00,64.9,48.9,28.18,SW,225,9.0,11.0,56,0.00,,,0.11,meteohub,2013-03-09 19:18:00,
2013-03-09 13:23:00,65.3,48.7,28.18,West,270,11.0,12.0,55,0.00,,,0.11,meteohub,2013-03-09 19:23:00,
2013-03-09 13:28:00,65.8,47.7,28.18,WNW,293,12.0,14.0,52,0.00,,,0.11,meteohub,2013-03-09 19:28:00,
2013-03-09 13:33:00,66.4,50.7,28.17,SW,225,8.0,14.0,57,0.00,,,0.11,meteohub,2013-03-09 19:33:00,
2013-03-09 13:38:00,67.1,48.9,28.16,West,270,11.0,14.0,52,0.00,,,0.11,meteohub,2013-03-09 19:38:00,
2013-03-09 13:43:00,67.8,43.9,28.16,SW,225,22.0,22.0,42,0.00,,,0.11,meteohub,2013-03-09 19:43:00,
2013-03-09 13:48:00,68.7,41.4,28.15,SW,225,22.0,22.0,37,0.00,,,0.11,meteohub,2013-03-09 19:48:00,
2013-03-09 13:53:00,68.9,36.1,28.15,SW,225,33.0,33.0,30,0.00,,,0.11,meteohub,2013-03-09 19:53:00,
2013-03-09 13:58:00,68.9,40.1,28.15,SW,225,24.0,29.0,35,0.00,,,0.11,meteohub,2013-03-09 19:58:00,
2013-03-09 14:03:00,68.7,37.6,28.15,SW,225,23.0,33.0,32,0.00,,,0.11,meteohub,2013-03-09 20:03:00,
2013-03-09 14:08:00,69.4,36.7,28.15,SW,225,23.0,33.0,30,0.00,,,0.11,meteohub,2013-03-09 20:08:00,
2013-03-09 14:13:00,69.6,35.1,28.15,SW,225,29.0,29.0,28,0.00,,,0.11,meteohub,2013-03-09 20:13:00,
2013-03-09 14:18:00,69.1,37.2,28.15,SW,225,29.0,30.0,31,0.00,,,0.11,meteohub,2013-03-09 20:18:00,
2013-03-09 14:23:00,68.5,36.7,28.15,WSW,248,21.0,30.0,31,0.00,,,0.11,meteohub,2013-03-09 20:23:00,
2013-03-09 14:28:00,68.4,38.1,28.15,SW,225,21.0,30.0,33,0.00,,,0.11,meteohub,2013-03-09 20:28:00,
2013-03-09 14:33:00,68.9,39.4,28.15,SW,225,18.0,29.0,34,0.00,,,0.11,meteohub,2013-03-09 20:33:00,
2013-03-09 14:38:00,70.3,39.0,28.15,WNW,293,24.0,27.0,32,0.00,,,0.11,meteohub,2013-03-09 20:38:00,
2013-03-09 14:43:00,70.2,34.7,28.15,SW,225,23.0,27.0,27,0.00,,,0.11,meteohub,2013-03-09 20:43:00,
2013-03-09 14:48:00,69.3,35.6,28.15,SW,225,24.0,36.0,29,0.00,,,0.11,meteohub,2013-03-09 20:48:00,
2013-03-09 14:53:00,69.1,36.3,28.15,NW,315,21.0,36.0,30,0.00,,,0.11,meteohub,2013-03-09 20:53:00,
2013-03-09 14:58:00,68.9,35.4,28.15,SW,225,23.0,36.0,29,0.00,,,0.11,meteohub,2013-03-09 20:58:00,
2013-03-09 15:03:00,70.5,35.8,28.15,SW,225,23.0,26.0,28,0.00,,,0.11,meteohub,2013-03-09 21:03:00,
2013-03-09 15:09:00,71.4,32.7,28.15,SW,225,24.0,32.0,24,0.00,,,0.11,meteohub,2013-03-09 21:09:00,
2013-03-09 15:13:00,70.3,34.7,28.16,SW,225,21.0,32.0,27,0.00,,,0.11,meteohub,2013-03-09 21:13:00,
2013-03-09 15:19:00,69.6,30.2,28.15,SW,225,23.0,32.0,23,0.00,,,0.11,meteohub,2013-03-09 21:19:00,
2013-03-09 15:24:00,69.8,27.0,28.15,South,180,24.0,31.0,20,0.00,,,0.11,meteohub,2013-03-09 21:24:00,
2013-03-09 15:29:00,69.8,29.3,28.15,SW,225,22.0,28.0,22,0.00,,,0.11,meteohub,2013-03-09 21:29:00,
2013-03-09 15:34:00,70.7,27.7,28.15,SW,225,26.0,28.0,20,0.00,,,0.11,meteohub,2013-03-09 21:34:00,
2013-03-09 15:39:00,70.2,32.7,28.15,NW,315,21.0,28.0,25,0.00,,,0.11,meteohub,2013-03-09 21:39:00,
2013-03-09 15:44:00,69.4,33.1,28.15,SW,225,20.0,28.0,26,0.00,,,0.11,meteohub,2013-03-09 21:44:00,
2013-03-09 15:49:00,69.6,32.2,28.15,SW,225,25.0,26.0,25,0.00,,,0.11,meteohub,2013-03-09 21:49:00,
2013-03-09 15:54:00,70.3,26.1,28.15,SW,225,18.0,25.0,19,0.01,,,0.12,meteohub,2013-03-09 21:54:00,
2013-03-09 15:59:00,69.8,28.0,28.16,SW,225,28.0,42.0,21,0.01,,,0.12,meteohub,2013-03-09 21:59:00,
2013-03-09 16:04:00,69.3,30.9,28.15,West,270,17.0,42.0,24,0.01,,,0.12,meteohub,2013-03-09 22:04:00,
2013-03-09 16:09:00,69.4,30.0,28.16,SW,225,18.0,30.0,23,0.01,,,0.12,meteohub,2013-03-09 22:09:00,
2013-03-09 16:14:00,69.1,30.7,28.16,SW,225,21.0,30.0,24,0.01,,,0.12,meteohub,2013-03-09 22:14:00,
2013-03-09 16:19:00,69.3,27.7,28.16,SW,225,21.0,23.0,21,0.01,,,0.12,meteohub,2013-03-09 22:19:00,
2013-03-09 16:24:00,69.8,29.3,28.16,SW,225,17.0,28.0,22,0.01,,,0.12,meteohub,2013-03-09 22:24:00,
2013-03-09 16:29:00,69.8,31.5,28.15,SW,225,17.0,28.0,24,0.01,,,0.12,meteohub,2013-03-09 22:29:00,
2013-03-09 16:34:00,70.2,31.6,28.15,SW,225,15.0,28.0,24,0.01,,,0.12,meteohub,2013-03-09 22:34:00,
2013-03-09 16:39:00,69.4,26.6,28.16,NW,315,30.0,30.0,20,0.01,,,0.12,meteohub,2013-03-09 22:39:00,
2013-03-09 16:44:00,68.7,30.4,28.15,NW,315,21.0,27.0,24,0.01,,,0.12,meteohub,2013-03-09 22:44:00,
2013-03-09 16:49:00,67.8,29.7,28.15,SW,225,21.0,30.0,24,0.01,,,0.12,meteohub,2013-03-09 22:49:00,
2013-03-09 16:54:00,67.8,27.5,28.15,SW,225,25.0,30.0,22,0.00,,,0.12,meteohub,2013-03-09 22:54:00,
2013-03-09 16:59:00,68.0,27.7,28.15,SW,225,21.0,25.0,22,0.00,,,0.12,meteohub,2013-03-09 22:59:00,
2013-03-09 17:04:00,67.8,28.6,28.15,SW,225,21.0,28.0,23,0.00,,,0.12,meteohub,2013-03-09 23:04:00,
2013-03-09 17:09:00,67.3,29.3,28.15,WNW,293,22.0,28.0,24,0.00,,,0.12,meteohub,2013-03-09 23:09:00,
2013-03-09 17:14:00,66.9,28.9,28.15,SSW,203,18.0,25.0,24,0.00,,,0.12,meteohub,2013-03-09 23:14:00,
2013-03-09 17:19:00,66.6,30.6,28.15,SW,225,15.0,25.0,26,0.00,,,0.12,meteohub,2013-03-09 23:19:00,
2013-03-09 17:24:00,66.7,30.7,28.15,WSW,248,16.0,25.0,26,0.00,,,0.12,meteohub,2013-03-09 23:24:00,
2013-03-09 17:29:00,66.7,30.7,28.15,WSW,248,17.0,21.0,26,0.00,,,0.12,meteohub,2013-03-09 23:29:00,
2013-03-09 17:34:00,66.4,30.4,28.15,West,270,16.0,24.0,26,0.00,,,0.12,meteohub,2013-03-09 23:34:00,
2013-03-09 17:39:00,66.2,31.3,28.16,West,270,18.0,24.0,27,0.00,,,0.12,meteohub,2013-03-09 23:39:00,
2013-03-09 17:44:00,66.6,30.6,28.16,SW,225,21.0,24.0,26,0.00,,,0.12,meteohub,2013-03-09 23:44:00,
2013-03-09 17:49:00,66.2,31.3,28.15,SW,225,14.0,20.0,27,0.00,,,0.12,meteohub,2013-03-09 23:49:00,
2013-03-09 17:54:00,65.8,31.8,28.15,SW,225,15.0,21.0,28,0.00,,,0.12,meteohub,2013-03-09 23:54:00,
2013-03-09 18:00:00,65.5,29.7,28.16,SW,225,16.0,21.0,26,0.00,,,0.12,meteohub,2013-03-10 00:00:00,
2013-03-09 18:05:00,65.5,27.7,28.15,NW,315,16.0,21.0,24,0.00,,,0.12,meteohub,2013-03-10 00:05:00,
2013-03-09 18:10:00,65.1,29.3,28.15,West,270,15.0,21.0,26,0.00,,,0.00,meteohub,2013-03-10 00:10:00,
2013-03-09 18:15:00,64.4,30.6,28.15,SW,225,10.0,21.0,28,0.00,,,0.00,meteohub,2013-03-10 00:15:00,
2013-03-09 18:20:00,64.0,29.3,28.15,SW,225,17.0,20.0,27,0.00,,,0.00,meteohub,2013-03-10 00:20:00,
2013-03-09 18:25:00,63.9,30.2,28.15,SW,225,15.0,17.0,28,0.00,,,0.00,meteohub,2013-03-10 00:25:00,
2013-03-09 18:30:00,63.9,29.3,28.15,SW,225,15.0,17.0,27,0.00,,,0.00,meteohub,2013-03-10 00:30:00,
2013-03-09 18:35:00,63.7,29.1,28.16,WSW,248,10.0,17.0,27,0.00,,,0.00,meteohub,2013-03-10 00:35:00,
2013-03-09 18:40:00,63.5,29.8,28.15,West,270,13.0,17.0,28,0.00,,,0.00,meteohub,2013-03-10 00:40:00,
2013-03-09 18:45:00,63.0,31.8,28.15,West,270,9.0,15.0,31,0.00,,,0.00,meteohub,2013-03-10 00:45:00,
2013-03-09 18:50:00,62.1,32.5,28.15,West,270,8.0,14.0,33,0.00,,,0.00,meteohub,2013-03-10 00:50:00,
2013-03-09 18:55:00,61.3,32.7,28.16,NW,315,8.0,13.0,34,0.00,,,0.00,meteohub,2013-03-10 00:55:00,
2013-03-09 19:00:00,61.2,32.5,28.16,NW,315,11.0,14.0,34,0.00,,,0.00,meteohub,2013-03-10 01:00:00,
2013-03-09 19:05:00,61.0,31.6,28.16,West,270,8.0,14.0,33,0.00,,,0.00,meteohub,2013-03-10 01:05:00,
2013-03-09 19:10:00,61.3,29.7,28.16,West,270,7.0,14.0,30,0.00,,,0.00,meteohub,2013-03-10 01:10:00,
2013-03-09 19:15:00,61.2,30.2,28.16,SW,225,6.0,11.0,31,0.00,,,0.00,meteohub,2013-03-10 01:15:00,
2013-03-09 19:20:00,61.0,30.9,28.16,West,270,4.0,11.0,32,0.00,,,0.00,meteohub,2013-03-10 01:20:00,
2013-03-09 19:25:00,60.8,30.0,28.17,West,270,5.0,8.0,31,0.00,,,0.00,meteohub,2013-03-10 01:25:00,
2013-03-09 19:30:00,61.2,27.0,28.17,SW,225,9.0,9.0,27,0.00,,,0.00,meteohub,2013-03-10 01:30:00,
2013-03-09 19:35:00,61.5,27.1,28.17,West,270,8.0,9.0,27,0.00,,,0.00,meteohub,2013-03-10 01:35:00,
2013-03-09 19:40:00,61.2,27.9,28.18,West,270,7.0,9.0,28,0.00,,,0.00,meteohub,2013-03-10 01:40:00,
2013-03-09 19:45:00,60.6,28.9,28.19,SW,225,5.0,9.0,30,0.00,,,0.00,meteohub,2013-03-10 01:45:00,
2013-03-09 19:50:00,60.4,28.0,28.18,West,270,8.0,8.0,29,0.00,,,0.00,meteohub,2013-03-10 01:50:00,
2013-03-09 19:55:00,60.4,27.1,28.18,West,270,5.0,9.0,28,0.00,,,0.00,meteohub,2013-03-10 01:55:00,
2013-03-09 20:00:00,60.3,26.1,28.18,NW,315,8.0,9.0,27,0.00,,,0.00,meteohub,2013-03-10 02:00:00,
2013-03-09 20:05:00,59.9,25.9,28.18,SW,225,9.0,9.0,27,0.00,,,0.00,meteohub,2013-03-10 02:05:00,
2013-03-09 20:10:00,59.7,26.6,28.19,South,180,8.0,9.0,28,0.00,,,0.00,meteohub,2013-03-10 02:10:00,
2013-03-09 20:15:00,59.7,25.7,28.19,NW,315,9.0,11.0,27,0.00,,,0.00,meteohub,2013-03-10 02:15:00,
2013-03-09 20:20:00,59.4,26.2,28.20,SW,225,13.0,13.0,28,0.00,,,0.00,meteohub,2013-03-10 02:20:00,
2013-03-09 20:25:00,58.5,27.9,28.20,SW,225,6.0,13.0,31,0.00,,,0.00,meteohub,2013-03-10 02:25:00,
2013-03-09 20:30:00,58.5,27.9,28.19,West,270,8.0,13.0,31,0.00,,,0.00,meteohub,2013-03-10 02:30:00,
2013-03-09 20:35:00,58.3,27.9,28.19,SW,225,6.0,13.0,31,0.00,,,0.00,meteohub,2013-03-10 02:35:00,
2013-03-09 20:40:00,57.9,27.5,28.18,West,270,6.0,9.0,31,0.00,,,0.00,meteohub,2013-03-10 02:40:00,
2013-03-09 20:45:00,57.4,29.3,28.19,SW,225,4.0,8.0,34,0.00,,,0.00,meteohub,2013-03-10 02:45:00,
2013-03-09 20:50:00,57.2,29.8,28.17,NW,315,4.0,7.0,35,0.00,,,0.00,meteohub,2013-03-10 02:50:00,
2013-03-09 20:55:00,56.7,30.0,28.17,West,270,5.0,7.0,36,0.00,,,0.00,meteohub,2013-03-10 02:55:00,
2013-03-09 21:00:00,55.4,31.5,28.17,West,270,6.0,7.0,40,0.00,,,0.00,meteohub,2013-03-10 03:00:00,
2013-03-09 21:05:00,54.9,33.4,28.17,West,270,5.0,7.0,44,0.00,,,0.00,meteohub,2013-03-10 03:05:00,
2013-03-09 21:10:00,54.3,33.4,28.18,West,270,5.0,8.0,45,0.00,,,0.00,meteohub,2013-03-10 03:10:00,
2013-03-09 21:15:00,54.9,30.4,28.18,South,180,6.0,8.0,39,0.00,,,0.00,meteohub,2013-03-10 03:15:00,
2013-03-09 21:20:00,55.0,30.6,28.17,West,270,2.0,10.0,39,0.00,,,0.00,meteohub,2013-03-10 03:20:00,
2013-03-09 21:26:00,55.2,30.7,28.20,South,180,4.0,10.0,39,0.00,,,0.00,meteohub,2013-03-10 03:26:00,
2013-03-09 21:31:00,55.0,30.6,28.22,SW,225,5.0,9.0,39,0.00,,,0.00,meteohub,2013-03-10 03:31:00,
2013-03-09 21:36:00,55.2,29.5,28.19,SW,225,3.0,5.0,37,0.00,,,0.00,meteohub,2013-03-10 03:36:00,
2013-03-09 21:41:00,55.6,29.7,28.19,East,90,2.0,5.0,37,0.00,,,0.00,meteohub,2013-03-10 03:41:00,
2013-03-09 21:46:00,55.4,28.9,28.19,East,90,2.0,5.0,36,0.00,,,0.00,meteohub,2013-03-10 03:46:00,
2013-03-09 21:51:00,55.6,28.4,28.18,NW,315,2.0,4.0,35,0.00,,,0.00,meteohub,2013-03-10 03:51:00,
2013-03-09 21:56:00,55.9,28.0,28.19,SW,225,2.0,3.0,34,0.00,,,0.00,meteohub,2013-03-10 03:56:00,
2013-03-09 22:01:00,56.3,27.5,28.20,SE,135,4.0,4.0,33,0.00,,,0.00,meteohub,2013-03-10 04:01:00,
2013-03-09 22:06:00,55.9,28.0,28.21,South,180,3.0,4.0,34,0.00,,,0.00,meteohub,2013-03-10 04:06:00,
2013-03-09 22:11:00,55.9,28.0,28.24,South,180,6.0,6.0,34,0.00,,,0.00,meteohub,2013-03-10 04:11:00,
2013-03-09 22:16:00,56.1,27.3,28.23,SE,135,3.0,8.0,33,0.00,,,0.00,meteohub,2013-03-10 04:16:00,
2013-03-09 22:21:00,56.1,28.0,28.21,East,90,4.0,8.0,34,0.00,,,0.00,meteohub,2013-03-10 04:21:00,
2013-03-09 22:26:00,56.5,27.7,28.19,NW,315,2.0,8.0,33,0.00,,,0.00,meteohub,2013-03-10 04:26:00,
2013-03-09 22:31:00,56.1,27.3,28.17,NW,315,3.0,4.0,33,0.00,,,0.00,meteohub,2013-03-10 04:31:00,
2013-03-09 22:36:00,56.8,24.1,28.18,West,270,8.0,8.0,28,0.00,,,0.00,meteohub,2013-03-10 04:36:00,
2013-03-09 22:41:00,57.7,23.0,28.23,SW,225,9.0,9.0,26,0.00,,,0.00,meteohub,2013-03-10 04:41:00,
2013-03-09 22:46:00,57.6,25.5,28.27,South,180,8.0,9.0,29,0.00,,,0.00,meteohub,2013-03-10 04:46:00,
2013-03-09 22:51:00,57.4,25.3,28.25,SW,225,4.0,10.0,29,0.00,,,0.00,meteohub,2013-03-10 04:51:00,
2013-03-09 22:56:00,56.7,27.9,28.25,SSW,203,4.0,10.0,33,0.00,,,0.00,meteohub,2013-03-10 04:56:00,
2013-03-09 23:00:00,56.7,27.9,28.23,South,180,3.0,10.0,33,0.00,,,0.00,meteohub,2013-03-10 05:00:00,
2013-03-09 23:01:00,56.5,27.0,28.23,East,90,2.0,10.0,32,0.00,,,0.00,meteohub,2013-03-10 05:01:00,
2013-03-09 23:06:00,56.1,25.2,28.22,SSE,158,4.0,5.0,30,0.00,,,0.00,meteohub,2013-03-10 05:06:00,
2013-03-09 23:11:00,56.5,24.6,28.23,SW,225,5.0,5.0,29,0.00,,,0.00,meteohub,2013-03-10 05:11:00,
2013-03-09 23:16:00,56.3,25.3,28.22,SW,225,3.0,6.0,30,0.00,,,0.00,meteohub,2013-03-10 05:16:00,
2013-03-09 23:21:00,56.8,25.0,28.22,West,270,5.0,6.0,29,0.00,,,0.00,meteohub,2013-03-10 05:21:00,
2013-03-09 23:26:00,56.7,26.4,28.23,NW,315,5.0,8.0,31,0.00,,,0.00,meteohub,2013-03-10 05:26:00,
2013-03-09 23:31:00,56.1,28.8,28.24,NW,315,5.0,9.0,35,0.00,,,0.00,meteohub,2013-03-10 05:31:00,
2013-03-09 23:36:00,54.9,29.7,28.26,West,270,9.0,9.0,38,0.00,,,0.00,meteohub,2013-03-10 05:36:00,
2013-03-09 23:41:00,53.8,37.6,28.27,North,0,16.0,17.0,54,0.00,,,0.00,meteohub,2013-03-10 05:41:00,
2013-03-09 23:46:00,51.8,38.8,28.27,NW,315,13.0,17.0,61,0.00,,,0.00,meteohub,2013-03-10 05:46:00,
2013-03-09 23:51:00,50.7,38.7,28.26,NW,315,11.0,17.0,63,0.00,,,0.00,meteohub,2013-03-10 05:51:00,
2013-03-09 23:56:00,50.4,38.7,28.28,NW,315,13.0,17.0,64,0.00,,,0.00,meteohub,2013-03-10 05:56:00,